sat.trackr.live / text

‹ back to catalog

FENGYUN 4B

NORAD 48808 · 2021-047A

PAYLOAD ACTIVE UNKNOWN

§ Identity

Operator
Country
PRC
Launch date
2021-06-02
Launch site
XICLF
Launch vehicle
Mass (kg)
RCS (m²)

Purposes: comms

External: N2YO · Heavens-Above · Gunter

§ Orbital elements

Epoch: 2026-05-25T00:49:06.434400Z

Period
1,436.10 min
Inclination
0.0982°
Eccentricity
0.0005318
Mean motion
1.00271457 rev/d
Perigee alt
35,764.3 km
Apogee alt
35,809.1 km
Semi-major
42,164.8 km
B*
0.0000e+0
RAAN
73.5060°
Arg perigee
289.1694°
Mean anomaly
356.9785°
Rev number
1,834

§ Raw data

FENGYUN 4B1 48808U 21047A   26145.03410225 -.00000333  00000+0  00000+0 0  99952 48808   0.0982  73.5060 0005318 289.1694 356.9785  1.00271457 18342

JSON: /api/v1/satellites/48808 · /tle

For live sub-satellite position, see the globe view (requires WebGL).

§ Visibility from observer

Set your observer location to see the next 7 days of passes ≥ 10°. The values pass through the URL so the page stays shareable.

No JS? Fill the form by hand. The geolocation button needs JavaScript.